Regional Weather Roundup
Issued by NWS Little Rock, AR

Home | Current Version | Previous Version | Graphics & Text | Print | Product List | Glossary On
Versions: 1 2 3 4 5 6 7 8 9 10 11 12 13 14 15 16 17 18 19 20 21 22 23 24 25 26 27 28 29 30 31 32 33 34 35 36 37 38 39 40 41 42 43 44 45 46 47 48 49 50
000
ASUS44 KLZK 220205
RWRLZK

WEATHER ROUNDUP FOR ARKANSAS
NATIONAL WEATHER SERVICE LITTLE ROCK AR
800 PM CST SUN JAN 21 2018

NOTE: "FAIR" INDICATES FEW OR NO CLOUDS BELOW 12,000 FEET WITH NO
SIGNIFICANT WEATHER AND/OR OBSTRUCTIONS TO VISIBILITY.

ARZ001-003-010-029-220300-
NORTHWEST ARKANSAS

CITY           SKY/WX    TMP DP  RH WIND       PRES   REMARKS
FAYETTEVILLE   LGT RAIN  60  59  96 S16       29.70F
FORT SMITH     RAIN      61  59  93 S7        29.71R
HARRISON       CLOUDY    62  56  80 S14       29.75F
BENTONVILLE    LGT RAIN  60  57  89 SE16G23   29.66F
ROGERS         CLOUDY    59  57  93 SE16G25   29.66F
SILOAM SPGS    TSTM      57  55  94 W15G22    29.70R
HIGHFILL       LGT RAIN  60  58  92 SE10      29.65F
SPRINGDALE     RAIN      59  59 100 SE12G26   29.70F FOG
$$

ARZ004-005-016-220300-
NORTH CENTRAL ARKANSAS

CITY           SKY/WX    TMP DP  RH WIND       PRES   REMARKS
BATESVILLE     MOCLDY    61  57  87 SE7       29.85F
FLIPPIN        CLOUDY    63  57  81 SE7G16    29.78F
MTN HOME       CLOUDY    60  57  89 S9        29.78F
$$

ARZ040-041-220300-
WEST CENTRAL ARKANSAS

CITY           SKY/WX    TMP DP  RH WIND       PRES   REMARKS
MENA           CLOUDY    68  66  94 SE12G26   29.73F
MOUNT IDA      CLOUDY    65  60  84 S14G22    29.75F
$$

ARZ009-017-025-026-028-220300-
NORTHEAST ARKANSAS

CITY           SKY/WX    TMP DP  RH WIND       PRES   REMARKS
JONESBORO      MOCLDY    60  57  89 S13       29.90F
NEWPORT        FAIR      60  56  86 SE14      29.88F
WALNUT RIDGE   FAIR      57  55  93 S13       29.88F
BLYTHEVILLE    CLOUDY    62  59  90 S12       29.93S
$$

ARZ022-023-033-042-044-220300-
CENTRAL ARKANSAS

CITY           SKY/WX    TMP DP  RH WIND       PRES   REMARKS
LITTLE ROCK    CLOUDY    64  58  80 S14       29.86F
N LITTLE ROCK    N/A     63  58  86 S10G20    29.80F
JACKSONVILLE   CLOUDY    64  58  82 SE8       29.86F
SEARCY         CLOUDY    61  61 100 S9        29.87F
HOT SPRINGS    CLOUDY    64  59  83 SE14G24   29.82F
RUSSELLVILLE   CLOUDY    64  58  80 SE10      29.77F
CLINTON        FAIR      63  57  82 S12       29.82F
$$

ARZ036-220300-
EAST ARKANSAS

CITY           SKY/WX    TMP DP  RH WIND       PRES   REMARKS
WEST MEMPHIS   MOCLDY    61  55  81 SE13      29.91F
$$

ARZ050-053-066-070-073-220300-
SOUTHWEST ARKANSAS

CITY           SKY/WX    TMP DP  RH WIND       PRES   REMARKS
ARKADELPHIA    FAIR      64  59  83 S12       29.84F
CAMDEN         CLOUDY    64  57  77 S10       29.88F
TEXARKANA      CLOUDY    65  60  84 S15G28    29.80F
EL DORADO      CLOUDY    64  62  93 S13       29.90S
DE QUEEN       MOCLDY    67  61  81 S10G26    29.74F
$$

ARZ056-057-069-220300-
SOUTHEAST ARKANSAS

CITY           SKY/WX    TMP DP  RH WIND       PRES   REMARKS
PINE BLUFF     MOCLDY    63  58  83 S8        29.90F
STUTTGART      MOCLDY    63  59  87 S8        29.90F
MONTICELLO     MOCLDY    66  59  78 S8        29.90F

$$





USA.gov is the U.S. government's official web portal to all federal, state and local government web resources and services.